Temperature
2 2 2 2 2 2 2 2 2 1 1 2 2 2 2 2 2 2 2 2 2 2 2 2 2 2 2 2 2 2 2 2 3 3 3 3 3 4
2 2 2 2 2 2 2 1 1 1 1 1 1 1 1 1 1 1 1 1 1 1 1 1 1 2 1 2 2 2 2 2 2 2 3 3 3 3
1 1 1 1 1 1 1 1 1 1 1 1 1 1 1 0 1 1 1 1 1 1 1 1 1 1 1 1 1 1 1 1 2 2 2 2 2 3
1 1 1 1 1 1 1 1 0 0 0 0 0 0 0 -0 -0 0 0 0 0 0 1 1 1 1 1 1 1 1 1 1 1 1 2 2 2 2
1 0 0 0 0 0 0 0 0 -0 -0 -0 -0 -0 -0 -0 -0 -0 -0 -0 0 0 0 0 0 0 0 0 0 0 0 1 1 1 1 1 2 2
0 0 -0 -0 -0 -0 -0 -0 -0 -1 -1 -1 -1 -1 -1 -1 -1 -1 -1 -1 -0 -0 -0 -0 -0 -0 -0 -0 -0 0 0 0 0 0 1 1 1 1
-0 -0 -0 -0 -0 -1 -1 -1 -1 -1 -1 -1 -1 -1 -1 -1 -1 -1 -2 -1 -1 -1 -1 -1 -1 -0 -0 -0 -0 -0 -0 -0 0 0 0 1 1 1
-1 -1 -1 -1 -1 -1 -1 -1 -1 -1 -1 -1 -1 -1 -1 -1 -2 -2 -2 -2 -2 -1 -1 -1 -1 -1 -1 -1 -1 -1 -1 -0 -0 -0 -0 0 0 1
-1 -1 -1 -1 -1 -1 -1 -1 -1 -1 -1 -1 -1 -1 -1 -2 -2 -2 -2 -2 -2 -2 -2 -2 -1 -1 -1 -1 -1 -1 -1 -1 -1 -1 -0 -0 0 0
-1 -1 -1 -1 -2 -2 -2 -2 -2 -1 -1 -2 -2 -2 -2 -2 -2 -2 -2 -2 -2 -2 -2 -2 -2 -2 -1 -1 -1 -1 -1 -1 -1 -1 -1 -0 0 0
-2 -2 -2 -2 -2 -2 -2 -2 -2 -2 -2 -2 -2 -2 -2 -2 -2 -2 -2 -2 -2 -2 -2 -3 -2 -2 -2 -1 -2 -2 -2 -2 -1 -1 -1 -1 -0 -0
-2 -2 -2 -2 -2 -2 -2 -2 -2 -2 -2 -2 -2 -2 -2 -2 -3 -3 -3 -3 -3 -3 -3 -3 -3 -3 -3 -2 -2 -2 -2 -2 -1 -1 -1 -1 -1 -1
-3 -3 -3 -3 -3 -3 -3 -3 -3 -3 -3 -3 -3 -3 -3 -3 -3 -3 -3 -3 -3 -3 -3 -3 -3 -3 -3 -3 -3 -2 -2 -2 -2 -1 -1 -1 -1 -1
-3 -3 -3 -3 -3 -3 -3 -3 -3 -3 -3 -3 -3 -3 -3 -3 -3 -3 -3 -3 -3 -3 -3 -3 -3 -3 -3 -4 -3 -3 -2 -2 -2 -2 -1 -1 -1 -1
-3 -3 -3 -3 -3 -3 -3 -3 -4 -3 -3 -3 -3 -3 -3 -3 -3 -3 -3 -3 -3 -3 -3 -3 -4 -3 -4 -4 -3 -3 -3 -2 -2 -2 -2 -2 -1 -1
-4 -4 -3 -3 -4 -4 -4 -4 -4 -4 -4 -4 -4 -4 -4 -4 -4 -3 -3 -3 -3 -3 -3 -4 -4 -4 -4 -3 -3 -3 -3 -3 -2 -2 -2 -2 -2 -1
-4 -4 -4 -4 -4 -4 -4 -4 -4 -4 -4 -4 -4 -4 -4 -4 -4 -4 -4 -4 -4 -4 -3 -3 -4 -4 -4 -4 -3 -3 -3 -3 -2 -2 -2 -2 -2 -2
-4 -4 -4 -4 -4 -4 -4 -4 -4 -5 -5 -5 -5 -4 -4 -4 -4 -4 -4 -4 -4 -4 -4 -4 -4 -4 -4 -3 -3 -3 -3 -3 -3 -2 -2 -2 -2 -2
-4 -4 -4 -4 -5 -5 -5 -5 -5 -5 -5 -5 -5 -5 -5 -5 -5 -5 -4 -5 -5 -5 -4 -4 -4 -4 -4 -4 -4 -3 -3 -3 -3 -2 -2 -2 -2 -2
-5 -4 -5 -5 -5 -5 -5 -5 -5 -5 -5 -5 -5 -5 -5 -5 -5 -5 -5 -5 -5 -5 -5 -4 -4 -4 -4 -4 -4 -3 -3 -3 -3 -3 -3 -2 -2 -2
-5 -5 -5 -5 -5 -5 -5 -5 -5 -5 -5 -5 -5 -5 -5 -5 -5 -5 -5 -5 -5 -5 -5 -4 -4 -4 -4 -4 -4 -4 -3 -3 -3 -3 -3 -3 -3 -3
-5 -5 -5 -5 -5 -5 -5 -5 -5 -5 -5 -5 -5 -5 -5 -5 -5 -5 -5 -5 -5 -5 -5 -5 -4 -4 -4 -4 -4 -4 -4 -3 -3 -3 -3 -3 -3 -3
-5 -5 -5 -5 -5 -5 -5 -5 -5 -5 -5 -5 -5 -5 -5 -5 -5 -5 -5 -5 -5 -5 -5 -5 -5 -5 -5 -4 -4 -4 -4 -4 -4 -3 -3 -3 -3 -4
Wind_Speed
4 4 3 3 3 3 3 3 3 4 5 3 2 2 4 5 7 6 6 8 9 10 11 11 12 12 12 12 13 13 14 14 14 14 15 16 16 17
3 4 3 3 3 3 3 3 3 4 4 2 3 3 4 5 8 7 7 9 9 10 11 11 12 12 12 13 13 13 14 14 14 15 15 15 15 16
4 4 4 3 3 3 2 2 3 3 5 4 3 3 3 4 5 6 7 6 7 9 10 11 12 12 12 13 13 13 14 14 14 14 14 15 15 15
4 4 5 4 3 3 3 3 3 3 4 5 4 3 4 4 3 4 5 6 6 9 10 12 12 12 12 13 13 14 14 14 14 14 14 14 15 15
5 5 5 4 4 4 4 4 3 3 3 4 4 3 3 3 3 4 5 4 6 8 10 10 11 12 13 13 13 13 13 13 13 14 14 14 14 14
5 5 5 5 5 5 4 4 4 3 3 4 4 3 3 3 3 3 4 3 5 6 7 8 10 12 12 13 13 13 13 13 13 13 13 13 13 13
5 5 5 6 7 5 4 4 4 3 3 3 3 3 3 3 3 3 5 4 5 4 3 5 5 5 8 11 12 12 12 12 12 12 12 12 12 12
5 4 5 5 6 7 7 6 5 4 4 4 3 4 5 4 3 4 4 4 4 2 3 5 4 4 5 6 10 12 11 11 11 11 11 11 11 11
4 4 3 4 5 4 5 6 6 7 6 4 4 5 5 5 4 5 5 5 6 4 3 5 4 5 5 7 11 11 10 10 11 11 10 10 11 11
5 4 4 4 4 4 3 3 3 4 5 4 4 5 5 5 5 5 5 5 5 4 3 4 4 4 5 5 9 10 10 11 11 11 11 11 10 10
4 4 4 4 5 5 3 3 3 3 4 5 6 6 7 7 5 3 3 4 5 4 2 2 3 4 4 4 6 8 10 11 11 11 11 10 9 8
3 3 5 5 5 5 3 3 3 3 3 2 3 4 4 4 5 3 3 4 4 3 2 2 2 2 3 3 3 5 6 8 10 11 10 10 9 6
3 3 3 5 5 5 4 3 4 3 1 1 2 2 2 2 2 2 3 3 4 4 3 2 2 2 2 4 4 3 3 4 6 7 9 9 9 6
3 3 3 5 5 5 3 3 3 2 0 1 1 2 2 2 2 2 2 2 3 5 5 3 3 3 3 4 4 4 4 4 4 4 5 7 7 7
3 3 3 3 3 2 3 3 2 1 1 1 2 2 2 2 2 2 3 3 3 3 3 3 3 3 3 4 4 4 4 4 3 3 3 4 4 4
2 2 2 1 1 2 2 1 1 1 1 2 2 2 2 2 2 2 2 3 3 3 4 3 3 3 3 3 3 4 3 3 3 4 3 4 4 3
2 1 1 1 1 1 1 1 1 1 1 1 1 1 2 2 2 2 2 2 2 3 4 3 3 2 2 3 3 4 3 3 3 3 3 4 4 3
2 1 1 1 1 1 1 1 1 1 1 1 1 1 2 2 2 2 2 2 2 3 3 3 3 3 2 2 3 4 3 3 3 3 2 3 4 4
1 1 1 1 1 1 1 1 2 1 1 1 1 1 2 2 2 2 2 2 2 3 3 3 2 2 3 4 3 3 2 3 3 3 2 2 3 4
1 1 1 1 1 1 1 1 1 1 1 1 1 2 2 2 2 2 2 2 3 3 3 2 2 2 3 3 3 4 4 3 2 3 3 2 2 3
0 1 1 1 1 1 1 1 1 1 2 2 2 2 2 2 2 2 2 3 3 3 3 3 4 5 3 2 2 3 3 4 3 2 3 2 2 2
0 1 1 1 1 1 1 1 1 1 2 2 2 2 2 2 3 3 3 2 3 3 3 4 4 3 2 2 2 3 4 4 5 6 5 2 1 1
1 1 1 1 1 1 1 2 2 2 2 2 2 2 2 2 2 2 2 2 2 3 3 3 3 2 2 2 2 2 3 4 3 4 5 6 4 3
Wind_Direction
227 227 235 242 240 235 232 224 232 272 277 260 265 272 294 302 304 309 302 302 307 310 310 311 312 308 307 307 308 308 306 307 308 308 306 306 304 304
223 222 235 243 248 242 235 238 236 244 267 264 262 281 293 296 302 308 303 304 304 307 311 314 313 313 312 310 309 309 308 308 308 307 306 304 304 304
231 227 238 237 237 243 239 238 242 240 263 281 279 286 278 286 305 308 304 300 298 304 308 313 315 316 314 314 315 312 310 310 310 309 307 305 303 302
233 233 240 238 236 240 235 235 238 239 248 273 289 289 281 279 287 295 305 303 299 301 308 310 311 313 314 313 313 311 309 309 309 309 309 309 308 305
229 231 235 229 238 241 239 235 239 249 247 259 280 285 290 297 304 299 296 295 300 302 306 307 309 312 313 314 312 311 310 308 307 308 308 308 308 307
234 232 232 227 231 233 235 230 234 241 244 251 270 284 288 292 294 293 303 302 303 307 307 307 308 311 313 314 314 313 310 307 306 306 307 308 308 308
239 235 234 238 243 240 240 226 225 233 243 252 260 280 282 285 282 287 298 304 300 295 301 305 310 311 314 313 315 314 313 312 311 310 309 309 309 309
237 238 240 241 247 255 259 253 240 232 234 245 261 260 270 273 277 283 296 299 297 293 304 303 306 305 310 312 316 316 315 317 317 317 317 315 313 312
230 234 245 249 257 247 258 264 263 259 250 240 243 252 258 258 262 276 283 288 280 282 296 291 293 294 303 310 316 320 321 323 323 322 320 319 316 314
228 223 227 234 243 246 242 251 253 262 260 254 243 250 255 252 246 260 269 283 284 279 258 269 284 286 301 304 312 318 326 325 323 322 321 320 318 314
237 229 229 230 248 257 250 249 263 272 276 267 266 270 272 274 273 267 273 286 293 287 259 250 274 291 291 291 304 316 323 328 328 326 326 328 327 324
236 234 243 252 253 256 239 230 251 268 275 293 301 300 296 288 290 270 253 266 281 280 267 264 279 300 301 289 299 318 322 326 331 331 330 330 329 330
231 232 239 254 259 265 267 242 251 266 250 256 279 292 299 298 298 288 260 249 262 267 269 273 282 280 271 295 301 301 312 317 326 329 331 332 331 330
226 230 235 251 260 270 277 272 279 289 241 250 269 282 292 298 300 304 304 291 267 263 263 260 267 274 284 291 293 302 304 313 319 320 325 330 331 329
225 235 243 256 271 274 277 285 287 250 227 245 266 281 285 282 292 308 323 333 336 315 286 277 269 275 275 277 283 289 301 307 313 313 319 323 320 322
221 219 241 279 308 305 304 306 295 249 241 245 264 275 285 288 295 304 307 316 320 320 330 317 293 280 283 288 279 288 294 295 308 312 313 317 321 325
174 159 164 184 228 266 296 307 299 274 275 265 262 271 281 293 304 311 305 308 300 302 318 327 335 317 274 278 282 287 292 295 297 307 314 317 314 321
149 160 197 213 218 233 253 273 283 271 270 266 270 269 275 288 304 315 312 299 297 301 306 313 324 329 328 307 277 277 287 290 300 308 307 307 317 329
154 183 214 231 244 243 246 265 283 283 272 259 267 271 274 285 291 299 306 305 302 300 302 306 312 314 314 316 310 298 283 300 308 310 310 298 303 315
174 197 224 245 254 255 257 272 284 288 281 274 273 271 273 273 276 282 291 295 298 301 307 310 305 295 277 283 290 306 319 302 305 315 321 324 319 325
221 238 245 251 261 264 268 268 270 271 275 275 271 274 273 271 275 280 284 285 295 298 301 302 297 300 289 295 304 320 331 344 339 321 322 329 339 6
235 244 255 251 251 264 270 268 266 266 271 277 270 269 269 263 265 271 278 281 290 293 293 302 314 326 330 322 313 320 334 347 4 13 19 21 24 9
258 253 257 256 256 262 262 261 263 265 263 265 264 265 267 270 269 271 276 282 287 295 306 318 333 337 330 321 319 332 344 350 359 18 23 25 36 32
Height
1474 1474 1474 1475 1475 1475 1475 1475 1474 1471 1469 1469 1469 1469 1468 1467 1466 1465 1463 1462 1461 1460 1458 1457 1455 1454 1452 1450 1449 1447 1445 1444 1442 1440 1439 1437 1436 1434
1469 1469 1469 1470 1470 1470 1470 1470 1470 1469 1466 1465 1465 1464 1464 1463 1462 1461 1459 1458 1457 1455 1454 1452 1450 1448 1447 1445 1444 1442 1440 1439 1437 1435 1433 1432 1431 1429
1464 1464 1465 1465 1465 1465 1465 1465 1465 1465 1463 1461 1461 1460 1460 1459 1457 1456 1455 1454 1452 1450 1449 1447 1445 1444 1442 1440 1438 1437 1435 1433 1432 1430 1428 1427 1425 1424
1459 1459 1460 1460 1460 1460 1460 1460 1460 1460 1459 1457 1456 1456 1455 1454 1453 1452 1451 1449 1448 1446 1444 1443 1441 1439 1437 1435 1434 1432 1430 1428 1427 1425 1423 1422 1420 1418
1454 1455 1455 1455 1455 1455 1455 1455 1456 1456 1455 1454 1452 1452 1451 1450 1449 1448 1447 1445 1444 1442 1440 1438 1437 1435 1433 1431 1429 1427 1425 1423 1422 1420 1418 1417 1415 1413
1450 1450 1450 1450 1450 1450 1451 1451 1451 1451 1451 1450 1449 1447 1447 1446 1446 1444 1442 1441 1440 1438 1436 1434 1433 1431 1429 1427 1424 1422 1421 1419 1417 1416 1414 1412 1410 1409
1445 1445 1445 1446 1446 1446 1446 1447 1447 1447 1446 1446 1445 1444 1443 1442 1442 1440 1438 1436 1435 1434 1432 1430 1429 1426 1424 1422 1420 1418 1416 1415 1413 1411 1410 1408 1406 1405
1440 1441 1441 1442 1442 1442 1443 1443 1444 1443 1443 1442 1441 1440 1439 1439 1438 1437 1435 1433 1431 1431 1429 1426 1425 1422 1420 1418 1416 1414 1412 1410 1409 1407 1405 1404 1402 1401
1436 1437 1437 1437 1438 1438 1439 1439 1439 1439 1439 1439 1437 1437 1436 1435 1435 1433 1432 1430 1428 1427 1425 1421 1421 1419 1417 1415 1413 1411 1409 1407 1405 1403 1401 1400 1398 1397
1432 1433 1433 1434 1434 1435 1435 1435 1435 1435 1435 1434 1434 1433 1433 1432 1431 1430 1429 1427 1425 1423 1422 1419 1416 1415 1413 1411 1409 1407 1406 1404 1402 1400 1398 1396 1395 1393
1429 1429 1430 1430 1431 1431 1431 1431 1431 1431 1431 1430 1430 1429 1429 1428 1428 1427 1425 1423 1421 1419 1418 1416 1413 1411 1409 1407 1406 1404 1402 1401 1398 1396 1394 1393 1391 1390
1425 1426 1426 1427 1427 1428 1428 1427 1427 1427 1427 1426 1426 1425 1425 1424 1424 1423 1422 1420 1418 1416 1414 1413 1410 1409 1405 1403 1402 1401 1399 1397 1396 1394 1392 1390 1389 1387
1421 1422 1423 1423 1424 1424 1424 1424 1424 1423 1423 1422 1422 1421 1421 1420 1420 1419 1418 1417 1415 1413 1412 1411 1408 1407 1405 1401 1399 1398 1397 1394 1393 1391 1389 1388 1386 1385
1418 1419 1419 1420 1421 1421 1421 1421 1421 1420 1419 1419 1418 1418 1417 1417 1416 1416 1415 1414 1412 1411 1409 1408 1406 1404 1402 1399 1397 1395 1394 1392 1390 1389 1387 1386 1384 1383
1416 1416 1417 1417 1418 1418 1418 1418 1417 1417 1416 1416 1415 1414 1414 1414 1413 1412 1411 1410 1409 1408 1406 1405 1404 1401 1400 1397 1395 1393 1391 1389 1388 1387 1385 1383 1382 1380
1413 1413 1414 1414 1414 1414 1415 1414 1414 1414 1414 1413 1412 1412 1412 1411 1410 1409 1408 1407 1406 1404 1404 1402 1401 1399 1396 1394 1393 1390 1389 1387 1386 1384 1383 1381 1380 1379
1410 1410 1411 1411 1411 1411 1411 1411 1411 1411 1411 1411 1410 1409 1409 1408 1408 1407 1406 1405 1404 1402 1400 1400 1398 1397 1395 1393 1391 1389 1387 1385 1384 1383 1381 1379 1378 1377
1408 1408 1408 1408 1408 1408 1408 1408 1409 1409 1408 1408 1408 1407 1406 1406 1405 1405 1404 1403 1402 1400 1399 1398 1396 1394 1393 1391 1390 1388 1386 1384 1383 1381 1380 1378 1377 1376
1406 1406 1406 1406 1406 1406 1406 1406 1406 1406 1406 1406 1406 1405 1405 1404 1403 1403 1402 1401 1400 1399 1398 1396 1395 1393 1391 1389 1388 1387 1385 1383 1381 1380 1379 1378 1376 1375
1404 1404 1404 1404 1404 1404 1405 1405 1405 1404 1404 1404 1404 1403 1403 1402 1402 1401 1401 1400 1399 1398 1396 1395 1394 1393 1391 1390 1388 1386 1384 1383 1381 1379 1378 1377 1376 1375
1402 1402 1402 1403 1403 1403 1403 1403 1403 1403 1403 1402 1402 1402 1401 1401 1400 1400 1399 1399 1398 1397 1395 1394 1393 1392 1391 1389 1387 1384 1383 1382 1381 1379 1378 1376 1375 1374
1401 1401 1401 1401 1401 1401 1401 1401 1401 1401 1401 1401 1400 1400 1399 1399 1399 1398 1398 1397 1396 1395 1394 1393 1392 1391 1389 1387 1386 1384 1383 1382 1381 1380 1379 1377 1376 1375
1400 1400 1400 1400 1400 1400 1400 1400 1400 1399 1399 1399 1398 1398 1398 1397 1397 1397 1396 1396 1395 1394 1393 1392 1391 1389 1388 1387 1386 1384 1383 1382 1381 1380 1379 1378 1377 1377